EW6887 Weather Reports


Display with metric or nautical units.
time (UTC)temp
F
wind
direction
speed
MPH
gust
MPH
rain 1hr
in
rain 24hr
in
rain mn
in
humidity
%
barometer
mb
20191112134710 40 24 0.0 0.0 0.00 0.00 0.00 94 1007.2
20191112133149 40 27 0.0 0.0 0.00 0.00 0.00 94 1007.2
20191112131623 40 26 0.0 0.0 0.00 0.00 0.00 94 1007.5
20191112130201 40 26 0.0 0.0 0.00 0.00 0.00 94 1007.7
20191112124641 40 24 0.0 0.0 0.00 0.00 0.00 93 1007.8
20191112123201 40 25 0.0 0.0 0.00 0.00 0.00 93 1007.9
20191112121640 40 21 0.0 0.0 0.00 0.00 0.00 93 1007.8
20191112120232 40 20 0.0 0.0 0.00 0.00 0.00 93 1007.6
20191112114703 40 19 0.0 0.0 0.00 0.00 0.00 93 1007.7
20191112113120 40 17 0.0 0.0 0.00 0.00 0.00 93 1007.7
20191112111630 40 9 0.0 0.0 0.00 0.00 0.00 93 1008.1
20191112110128 40 21 0.0 0.0 0.00 0.00 0.00 93 1008.3
20191112104606 40 21 0.0 0.0 0.00 0.00 0.00 93 1008.4
20191112103111 40 51 0.0 0.0 0.00 0.00 0.00 93 1008.3
20191112101640 40 47 0.0 0.0 0.00 0.00 0.00 93 1008.5
20191112100051 40 355 0.0 0.0 0.00 0.00 0.00 93 1008.6
20191112094640 40 17 0.0 0.0 0.00 0.00 0.00 93 1009.0
20191112093129 41 35 0.0 0.0 0.00 0.00 0.00 94 1009.1
20191112090114 41 284 0.0 1.0 0.00 0.00 0.00 93 1009.1
20191112084545 41 275 0.0 0.0 0.00 0.00 0.00 93 1009.3
20191112083122 41 304 0.0 0.0 0.00 0.00 0.00 93 1009.1
20191112081622 42 293 0.0 1.0 0.00 0.00 0.00 94 1009.0
20191112080136 42 261 0.0 2.0 0.00 0.00 0.00 93 1008.9
20191112074609 43 298 0.0 2.0 0.00 0.00 0.00 93 1008.8
20191112073049 44 262 0.0 0.0 0.00 0.00 0.00 94 1008.9
20191112071535 45 205 0.0 0.0 0.00 0.00 0.00 94 1008.6
20191112070119 45 182 0.0 7.0 0.00 0.00 0.00 93 1008.6
20191112064612 45 194 0.0 10.0 0.00 0.00 0.00 92 1008.5
20191112063025 45 163 0.0 3.0 0.00 0.00 0.00 92 1008.4
20191112061536 45 129 0.0 1.0 0.00 0.00 0.00 92 1008.4
20191112060034 45 198 0.0 10.0 0.00 0.00 0.00 92 1008.4
20191112054539 45 182 0.0 9.0 0.00 0.00 0.00 92 1008.3
20191112053050 45 187 0.0 6.0 0.00 0.00 0.00 92 1008.5
20191112051516 45 186 0.0 9.0 0.00 0.00 0.00 93 1008.2
20191112050017 45 207 0.0 8.0 0.00 0.00 0.00 93 1008.1
20191112044512 45 161 0.0 8.0 0.00 0.00 0.00 92 1008.0
20191112043008 45 175 0.0 9.0 0.00 0.00 0.00 92 1007.8
20191112041519 45 216 0.0 13.0 0.00 0.00 0.00 92 1008.1
20191112040007 45 220 0.0 6.0 0.00 0.00 0.00 92 1008.2
20191112034509 45 245 0.0 12.0 0.00 0.00 0.00 91 1008.1
20191112033010 45 244 0.0 10.0 0.00 0.00 0.00 91 1008.0
20191112030151 45 194 0.0 9.0 0.00 0.00 0.00 91 1007.9
20191112024716 45 192 0.0 0.0 0.00 0.00 0.00 90 1007.9
20191112023251 45 210 0.0 7.0 0.00 0.00 0.00 90 1008.0
20191112021714 45 187 0.0 10.0 0.00 0.00 0.00 90 1007.9
20191112020129 45 167 0.0 1.0 0.00 0.00 0.00 89 1007.9
20191112014736 45 196 1.0 10.0 0.00 0.00 0.00 89 1007.7
20191112013208 45 273 0.0 8.0 0.00 0.00 0.00 88 1007.8
20191112011650 45 165 0.0 11.0 0.00 0.00 0.00 88 1007.6
20191112010140 45 202 0.0 19.0 0.00 0.00 0.00 88 1007.5
20191112004737 45 190 1.0 18.0 0.00 0.00 0.00 88 1007.7
20191112003241 45 117 0.0 12.0 0.00 0.00 0.00 88 1007.7
20191112001636 45 198 0.0 10.0 0.00 0.00 0.00 87 1007.6
20191112000226 45 204 0.0 10.0 0.00 0.00 0.00 87 1007.6
20191111234702 45 177 0.0 4.0 0.00 0.00 0.00 87 1007.6
20191111233200 45 194 3.0 12.0 0.00 0.00 0.00 87 1007.8
20191111231651 45 186 0.0 14.0 0.00 0.00 0.00 87 1007.8
20191111230134 45 173 0.0 10.0 0.00 0.00 0.00 87 1007.9
20191111224611 45 170 0.0 10.0 0.00 0.00 0.00 87 1008.1
20191111223046 45 190 0.0 10.0 0.00 0.00 0.00 87 1008.2
20191111221620 45 184 0.0 8.0 0.00 0.00 0.00 86 1008.2
20191111220104 45 188 0.0 12.0 0.00 0.00 0.00 86 1008.3
20191111214555 45 194 0.0 12.0 0.00 0.00 0.00 86 1008.4
20191111213106 45 197 0.0 11.0 0.00 0.00 0.00 86 1008.3
20191111211648 44 197 0.0 10.0 0.00 0.00 0.00 86 1008.4
20191111210128 44 159 0.0 15.0 0.00 0.00 0.00 86 1008.3
20191111204542 44 179 0.0 17.0 0.00 0.00 0.00 85 1008.5
20191111203109 44 203 0.0 12.0 0.00 0.00 0.00 85 1008.6
20191111201553 44 202 1.0 10.0 0.00 0.00 0.00 85 1008.8
20191111200031 44 186 0.0 6.0 0.00 0.00 0.00 85 1009.1
20191111194545 44 219 0.0 10.0 0.00 0.00 0.00 85 1009.2
20191111193045 44 175 0.0 9.0 0.00 0.00 0.00 85 1009.2
20191111191552 43 159 0.0 10.0 0.00 0.00 0.00 85 1009.5
20191111190047 43 185 0.0 4.0 0.00 0.00 0.00 85 1009.6
20191111184545 43 175 0.0 13.0 0.00 0.00 0.00 84 1009.5
20191111183019 43 161 0.0 7.0 0.00 0.00 0.00 84 1009.6
20191111181523 43 157 1.0 9.0 0.00 0.00 0.00 85 1009.7
20191111180025 43 174 0.0 1.0 0.00 0.00 0.00 84 1010.0
20191111174523 42 165 0.0 9.0 0.00 0.00 0.00 85 1010.1
20191111173011 42 186 0.0 9.0 0.00 0.00 0.00 85 1010.0
20191111171512 42 161 0.0 6.0 0.00 0.00 0.00 84 1010.1
20191111170015 42 175 0.0 4.0 0.00 0.00 0.00 83 1010.2
20191111164507 42 198 1.0 9.0 0.00 0.00 0.00 83 1010.4
20191111163022 42 136 1.0 14.0 0.00 0.00 0.00 84 1010.5
20191111161502 42 164 0.0 9.0 0.00 0.00 0.00 83 1010.5
20191111160001 42 157 0.0 6.0 0.00 0.00 0.00 83 1010.6
20191111154700 42 156 0.0 7.0 0.00 0.00 0.00 84 1010.6
20191111153227 42 196 0.0 3.0 0.00 0.00 0.00 84 1010.6
20191111151729 42 190 0.0 11.0 0.00 0.00 0.00 83 1010.5
20191111150243 42 190 0.0 9.0 0.00 0.00 0.00 83 1010.7
20191111144725 42 144 0.0 10.0 0.00 0.00 0.00 83 1010.9
20191111143211 42 154 0.0 9.0 0.00 0.00 0.00 83 1010.9
20191111141642 42 178 0.0 6.0 0.00 0.00 0.00 84 1011.2
20191111140145 42 177 0.0 1.0 0.00 0.00 0.00 84 1011.2